Location: �trelles
(48.0603°N, 1.1940°W)
Time: 10:17:25
(UTC+00:00)

Daily predictions for brighter satellites

Satellite Brightness Start Highest point End
(mag) Time Altitude Azimuth Time Altitude Azimuth Time Altitude Azimuth
Okean 1-7 Rocket 3.8 18:54:19 10° N 18:58:38 50° ENE 19:02:54 10° SSE
STARLINK-1236 4.3 18:56:36 10° SSW 19:00:15 34° SE 19:03:55 10° ENE
ATLAS 2AS CENTAUR R/B 4.4 18:55:43 10° NW 19:02:13 27° NNE 19:08:24 10° ENE
STARLINK-1116 3.6 18:58:46 10° WNW 19:02:48 77° NNE 19:06:48 10° ESE
STARLINK-1102 4.4 18:59:00 10° WNW 19:02:59 44° N 19:06:58 10° E
SJ-11-01 4.3 19:01:10 10° SSE 19:05:49 67° ENE 19:10:31 10° N
H-2A R/B 2.3 19:01:44 10° SE 19:06:53 53° ENE 19:11:56 10° N
STARLINK-1111 4.4 19:03:59 10° WNW 19:07:59 44° N 19:11:59 10° E
STARLINK-1118 3.8 19:06:55 10° W 19:08:51 26° SW 19:10:48 10° SSE
STARLINK-1269 4.1 19:05:51 10° SSW 19:09:37 39° SE 19:13:24 10° ENE
Okean 1 Rocket 4.1 19:06:40 10° SSW 19:10:56 51° WNW 19:15:12 10° N
ERBS 3.0 19:08:14 10° WSW 19:11:34 56° NNW 19:14:54 10° NE
STARLINK-1094 3.5 19:07:45 10° WNW 19:11:47 85° NNE 19:15:46 10° ESE
Cosmos 1544 Rocket 4.1 19:08:37 10° SSE 19:12:40 38° E 19:16:47 10° NNE
Cosmos 1745 Rocket 4.0 19:06:24 10° N 19:12:47 84° E 19:19:02 10° S
STARLINK-1073 4.3 19:08:59 10° WNW 19:12:59 45° N 19:17:00 10° E
STARLINK-1200 4.0 19:10:28 10° SSW 19:14:17 42° SE 19:18:07 10° ENE
Cosmos 2297 3.9 19:08:42 10° NNW 19:14:19 58° ENE 19:19:55 10° SE
HJ-1C 3.6 19:11:31 10° S 19:14:51 73° W 19:18:14 10° NNW
NOSS 0 Rocket 4.2 19:08:47 10° SSW 19:15:00 78° WNW 19:21:14 10° NNE
USA 234 3.7 19:10:06 10° ENE 19:16:11 39° SE 19:22:13 10° SSW
STARLINK-1117 3.5 19:12:16 10° WNW 19:16:18 89° NNE 19:20:06 11° ESE
STARLINK-1121 4.3 19:13:59 10° WNW 19:18:00 47° NNE 19:21:53 11° E
Meteor 2-5 Rocket 3.9 19:12:27 10° NNW 19:18:09 82° W 19:23:43 10° S
STARLINK-1192 3.9 19:15:03 10° SW 19:18:54 45° SE 19:22:48 10° ENE
STARLINK-1078 3.5 19:16:46 10° WNW 19:20:47 86° SSW 19:24:26 12° ESE
ADEOS Rocket 3.7 19:13:56 10° N 19:20:49 68° WNW 19:26:56 10° SSW
Cosmos 2237 Rocket 2.3 19:15:24 10° SSW 19:21:01 83° WNW 19:26:43 10° NNE
Cosmos 1805 3.3 19:17:18 10° S 19:21:13 83° W 19:25:09 10° N
STARLINK-1106 4.3 19:18:57 10° WNW 19:22:59 48° NNE 19:26:39 12° E
STARLINK-1244 3.8 19:19:47 10° SW 19:23:41 49° SE 19:27:36 10° ENE
STARLINK-1201 2.9 19:20:48 10° SW 19:24:02 69° SSE 19:27:18 10° ENE
Cosmos 1302 Rocket 4.2 19:19:02 10° NNW 19:24:12 53° ENE 19:29:22 10° SE
STARLINK-1108 3.6 19:21:17 10° WNW 19:25:20 82° SSW 19:28:47 14° ESE
Cosmos 2278 Rocket 3.6 19:21:10 10° NW 19:26:26 40° WSW 19:31:41 10° S
CZ-2C R/B 3.7 19:23:42 10° NE 19:27:40 22° E 19:31:36 10° SE
STARLINK-1112 4.2 19:23:57 10° WNW 19:28:00 49° NNE 19:31:27 14° E
STARLINK-1138 3.7 19:24:26 10° SW 19:28:22 52° SE 19:32:19 10° ENE
Cosmos 1269 Rocket 4.1 19:23:20 10° S 19:28:29 56° ESE 19:33:41 10° NNE
STARLINK-1209 2.7 19:26:28 10° WSW 19:29:23 81° NNW 19:32:14 10° ENE
STARLINK-1066 3.6 19:26:39 10° WNW 19:29:43 48° SSW 19:32:18 13° SE
STARLINK-1071 3.6 19:25:48 10° WNW 19:29:50 77° SSW 19:33:08 15° SE
STARLINK-1081 3.6 19:27:07 10° WNW 19:30:09 47° SW 19:32:41 13° SE
STARLINK-1228 2.7 19:27:28 10° WSW 19:30:20 80° NNW 19:33:08 11° ENE
STARLINK-1070 3.6 19:27:35 10° WNW 19:30:35 47° SW 19:33:06 14° SE
STARLINK-1124 3.7 19:26:42 10° WNW 19:30:51 76° SSW 19:34:14 15° SE
STARLINK-1069 3.6 19:27:58 10° WNW 19:31:02 46° SW 19:33:34 14° SE
STARLINK-1085 3.6 19:28:25 10° WNW 19:31:29 46° SW 19:34:00 14° SE
STARLINK-1086 3.6 19:28:56 10° WNW 19:31:57 45° SW 19:34:25 14° SE
STARLINK-1095 3.7 19:29:23 10° WNW 19:32:24 45° SW 19:34:50 14° SE
STARLINK-1077 3.7 19:29:49 10° WNW 19:32:49 45° SW 19:35:16 14° SE
STARLINK-1128 4.1 19:28:58 10° WNW 19:33:01 51° NNE 19:36:15 15° E
STARLINK-1143 3.7 19:29:10 10° SW 19:33:08 56° SE 19:37:07 10° ENE
STARLINK-1075 3.7 19:30:17 10° WNW 19:33:17 44° SW 19:35:42 14° SE
Meteor 1-24 Rocket 3.8 19:27:55 10° NNW 19:33:31 82° W 19:38:53 10° S
SeaSat 1 4.2 19:29:11 10° NNE 19:33:38 35° NW 19:38:04 10° WSW
STARLINK-1093 3.7 19:30:42 10° WNW 19:33:44 44° SW 19:36:10 14° SE
SL-8 R/B 3.7 19:29:08 10° W 19:33:56 85° N 19:38:02 14° E
STARLINK-1074 3.7 19:31:08 10° WNW 19:34:10 44° SW 19:36:36 14° SE
STARLINK-1110 3.6 19:30:20 10° WNW 19:34:21 72° SSW 19:37:29 16° SE
STARLINK-1087 3.7 19:31:39 10° WNW 19:34:38 43° SW 19:37:00 14° SE
CZ-4 R/B 4.3 19:32:16 10° SW 19:34:49 17° W 19:37:22 10° NW
ARGOS 3.1 19:29:34 10° SSE 19:34:58 77° ENE 19:40:23 10° NNW
STARLINK-1088 3.7 19:32:06 10° WNW 19:35:05 43° SW 19:37:26 15° SSE
STARLINK-1115 3.8 19:32:31 10° WNW 19:35:32 43° SW 19:37:55 15° SSE
STARLINK-1076 3.8 19:32:57 10° WNW 19:35:58 42° SW 19:38:20 15° SSE
STARLINK-1092 3.8 19:33:25 10° WNW 19:36:26 42° SW 19:38:47 15° SSE
STARLINK-1080 3.8 19:33:55 10° WNW 19:36:53 41° SW 19:39:10 15° SSE
STARLINK-1090 3.8 19:34:21 10° WNW 19:37:19 41° SW 19:39:36 15° SSE
STARLINK-1089 3.8 19:34:49 10° WNW 19:37:47 41° SW 19:40:02 15° SSE
STARLINK-1113 4.1 19:33:57 10° WNW 19:38:01 53° NNE 19:41:02 17° E
STARLINK-1107 3.8 19:35:16 10° WNW 19:38:14 40° SW 19:40:28 15° SSE
MOS 1 4.3 19:33:38 10° SSE 19:39:17 88° ENE 19:44:59 10° NNW
Cosmos 1470 3.0 19:37:48 10° SSE 19:41:29 44° E 19:45:13 10° NNE
STARLINK-1119 4.0 19:38:55 10° WNW 19:43:00 55° NNE 19:45:48 19° E
STARLINK-1122 3.8 19:39:30 10° WNW 19:43:30 64° SSW 19:46:18 19° SE
STARLINK-1241 3.5 19:39:34 10° SW 19:43:33 66° SSE 19:47:06 13° ENE
STARLINK-1233 2.9 19:40:39 10° WSW 19:43:48 83° NNW 19:46:21 15° ENE
STARLINK-1212 2.9 19:41:07 10° WSW 19:44:15 82° NNW 19:46:46 15° ENE
STARLINK-1105 2.9 19:41:33 10° WSW 19:44:42 82° NNW 19:47:13 15° ENE
STARLINK-1206 2.9 19:42:03 10° WSW 19:45:10 81° NNW 19:47:38 15° ENE
STARLINK-1247 2.9 19:42:30 10° WSW 19:45:37 81° NNW 19:48:03 15° ENE
Cosmos 2315 Rocket 4.0 19:39:31 10° S 19:45:43 65° E 19:52:02 10° NNE
STARLINK-1227 2.9 19:42:54 10° WSW 19:46:02 80° NNW 19:48:31 15° ENE
SL-08 RB Rocket 3.6 19:41:37 10° SSE 19:46:06 70° ENE 19:50:40 10° N
ATLAS CENTAUR R/B 4.3 19:44:36 10° NW 19:46:07 12° NNW 19:47:37 10° N
ISS -3.1 19:42:53 10° WNW 19:46:10 48° N 19:48:11 20° ENE
STARLINK-1218 2.9 19:43:23 10° WSW 19:46:31 80° NNW 19:48:54 16° ENE
STARLINK-1226 2.9 19:43:52 10° WSW 19:46:59 79° NNW 19:49:23 16° ENE
SJ-6B 2.9 19:43:08 10° SSE 19:47:12 87° ENE 19:51:22 10° NNW
STARLINK-1254 2.9 19:44:15 10° WSW 19:47:23 79° NNW 19:49:48 16° ENE
MetOp-A 4.2 19:42:33 10° SSE 19:47:46 58° ENE 19:53:02 10° N
STARLINK-1215 2.9 19:44:45 10° WSW 19:47:53 78° NNW 19:50:14 16° ENE
STARLINK-1114 4.0 19:43:55 10° WNW 19:48:01 57° NNE 19:50:36 21° E
Resurs 1-3 3.9 19:44:43 15° SE 19:48:03 46° ENE 19:52:16 10° N
STARLINK-1126 3.9 19:44:08 10° WNW 19:48:07 60° SSW 19:50:45 20° SE
STARLINK-1239 3.5 19:44:08 10° SW 19:48:07 70° SSE 19:51:30 14° ENE
STARLINK-1231 2.9 19:45:12 10° WSW 19:48:18 77° NNW 19:50:39 17° ENE
STARLINK-1232 2.9 19:46:06 10° WSW 19:49:13 76° NNW 19:51:31 17° ENE
Cosmos 1758 3.5 19:45:26 10° S 19:49:24 51° E 19:53:23 10° NNE
STARLINK-1217 3.0 19:46:33 10° WSW 19:49:40 76° NNW 19:51:58 17° ENE
STARLINK-1208 3.0 19:46:59 10° WSW 19:50:07 76° NNW 19:52:25 17° ENE
STARLINK-1229 3.0 19:47:27 10° WSW 19:50:34 75° NNW 19:52:49 17° ENE
STARLINK-1271 3.0 19:47:55 10° WSW 19:51:02 74° NNW 19:53:17 17° ENE
BREEZE-M DEB (TANK) 4.0 19:43:01 10° W 19:51:07 74° N 19:53:10 22° E
STARLINK-1270 3.0 19:48:22 10° WSW 19:51:29 74° NNW 19:53:42 18° ENE
STARLINK-1154 3.0 19:48:49 10° WSW 19:51:55 73° NNW 19:54:07 18° ENE
STARLINK-1082 4.0 19:48:43 10° WNW 19:52:40 56° SW 19:55:08 21° SE
STARLINK-1240 3.4 19:48:43 10° SW 19:52:43 75° SSE 19:55:56 15° ENE
STARLINK-1197 3.0 19:49:43 10° WSW 19:52:49 72° NNW 19:55:00 18° ENE
STARLINK-1130 (DARKSAT) 3.9 19:48:53 10° WNW 19:53:00 59° NNE 19:55:22 23° E
STARLINK-1189 3.0 19:50:11 10° WSW 19:53:17 72° NNW 19:55:25 18° ENE
CZ-2C R/B 3.2 19:48:36 10° S 19:53:40 72° WSW 19:58:32 10° NNW
STARLINK-1187 3.2 19:51:02 10° WSW 19:54:09 65° NNW 19:56:20 18° ENE
STARLINK-1188 3.0 19:51:04 10° WSW 19:54:11 71° NNW 19:56:17 19° ENE
STARLINK-1198 3.0 19:51:18 10° WSW 19:54:25 71° NNW 19:56:31 19° ENE
Cosmos 2369 Rocket 2.8 19:49:13 10° NNW 19:54:38 41° NE 19:57:50 22° ESE
STARLINK-1235 3.3 19:51:45 10° WSW 19:54:51 60° NNW 19:57:05 17° NE
Abrixas rocket 4.1 19:53:25 10° S 19:54:14 14° S 19:54:14 14° S
Resurs 01 Rocket 2.1 19:53:05 22° SE 19:55:26 40° ENE 19:59:34 10° N
FREGAT/IRIS 3.8 19:53:32 10° S 19:56:06 38° W 19:58:42 10° NNW
STARLINK-1199 3.1 19:53:01 10° WSW 19:56:09 69° NNW 19:58:12 19° ENE
STARLINK-1191 3.1 19:53:28 10° WSW 19:56:36 69° NNW 19:58:39 20° ENE
STARLINK-67 3.6 19:54:10 10° W 19:56:38 39° NNW 19:58:04 20° NE
STARLINK-1210 3.1 19:53:55 10° WSW 19:57:02 68° NNW 19:59:05 20° ENE
STARLINK-1100 4.1 19:53:17 10° WNW 19:57:13 52° SW 19:59:31 23° SSE
STARLINK-1216 3.4 19:53:19 10° WSW 19:57:21 79° SSE 20:00:23 17° ENE
STARLINK-1221 3.1 19:54:23 10° WSW 19:57:31 68° NNW 19:59:33 20° ENE
STARLINK-1219 3.1 19:54:50 10° WSW 19:57:57 68° NNW 19:59:57 20° ENE
STARLINK-1084 3.8 19:53:52 10° WNW 19:57:59 62° NNE 20:00:09 26° E
Cosmos 1733 4.3 19:54:27 10° SSW 19:58:05 47° WNW 20:01:46 10° N
STARLINK-1222 3.1 19:55:16 10° WSW 19:58:23 67° NNW 20:00:22 20° ENE
STARLINK-1211 3.1 19:55:44 10° WSW 19:58:51 67° NNW 20:00:49 21° ENE
STARLINK-1214 3.2 19:56:11 10° WSW 19:59:18 66° NNW 20:01:15 21° NE
STARLINK-1245 3.2 19:56:41 10° WSW 19:59:47 66° NNW 20:01:40 21° NE
STARLINK-1238 3.2 19:57:06 10° WSW 20:00:13 65° NNW 20:02:07 21° NE
STARLINK-1205 3.2 19:58:03 10° WSW 20:01:09 64° NNW 20:02:58 22° NE
IRIDIUM 114 4.4 19:56:16 10° N 20:01:25 56° E 20:05:35 15° SSE
STARLINK-1204 3.2 19:58:28 10° WSW 20:01:35 64° NNW 20:03:23 22° NE
Meteor 2-15 Rocket 4.4 19:55:48 10° S 20:01:45 61° E 20:07:45 10° NNE
STARLINK-1083 4.2 19:57:54 10° WNW 20:01:49 49° SW 20:03:57 24° SSE
STARLINK-1237 3.4 19:57:58 10° WSW 20:02:00 84° SSE 20:04:51 19° ENE
STARLINK-1098 3.8 19:58:50 10° WNW 20:02:57 65° NNE 20:04:55 29° E
SL-14 R/B 4.2 20:01:34 10° NNW 20:05:31 51° W 20:09:26 10° S
SPOT 3 Rocket 3.5 20:00:43 10° SSE 20:05:57 87° ENE 20:11:13 10° NNW
Cosmos 1726 3.2 20:06:29 27° ENE 20:06:29 27° ENE 20:09:15 10° NNE
STARLINK-1125 4.3 20:02:33 10° WNW 20:06:25 45° SW 20:08:23 25° SSE
STARLINK-1202 3.4 20:02:35 10° WSW 20:06:37 88° SSE 20:09:19 20° ENE
Meteor 1-21 Rocket 4.2 20:02:10 10° N 20:07:43 63° ENE 20:11:31 20° SSE
STARLINK-1123 3.7 20:03:50 10° WNW 20:07:58 68° NNE 20:09:44 33° E
Cosmos 2228 4.3 20:11:02 23° ENE 20:11:02 23° ENE 20:13:45 10° NE
Cosmos 1709 Rocket 4.3 20:04:12 10° NNW 20:10:22 67° W 20:16:26 10° S
IRIDIUM 103 4.3 20:05:24 10° N 20:10:38 67° E 20:14:45 16° SSE
STARLINK-1109 4.4 20:06:52 10° WNW 20:10:43 43° SW 20:12:32 26° SSE
CZ-4C R/B 4.5 20:06:24 10° WNW 20:10:55 22° N 20:16:04 10° NE
STARLINK-1246 3.5 20:07:41 10° WSW 20:11:45 86° NNW 20:14:18 22° ENE
MOS 1 Rocket 3.7 20:07:49 10° NNE 20:12:55 54° E 20:18:11 10° S
STARLINK-1097 3.7 20:08:47 10° WNW 20:12:56 71° NNE 20:14:29 37° E
Meteor 2-15 4.4 20:07:07 10° S 20:13:11 90° E 20:19:17 10° N
STARLINK-1091 4.5 20:11:34 10° WNW 20:15:23 40° SW 20:17:02 26° SSE
Cosmos 292 Rocket 3.8 20:12:26 10° NNW 20:17:11 62° ENE 20:19:07 34° SE
STARLINK-1099 3.6 20:13:47 10° WNW 20:17:56 75° NNE 20:19:17 41° E
Cosmos 1943 4.2 20:19:28 26° E 20:19:28 26° E 20:23:15 10° NE
Cosmos 1943 Rocket 2.1 20:14:29 10° NNW 20:20:03 76° ENE 20:22:51 30° SE
STARLINK-1224 3.6 20:16:34 10° WSW 20:20:36 79° NNW 20:22:45 27° ENE
Cosmos 2074 Rocket 4.0 20:16:38 10° N 20:22:53 67° E 20:26:45 24° SSE
STARLINK-1104 3.6 20:18:46 10° WNW 20:22:56 79° NNE 20:24:04 46° ESE
STARLINK-1225 3.6 20:21:17 10° WSW 20:25:19 75° NNW 20:27:17 29° ENE
USA 186 4.4 20:23:11 10° SSW 20:25:56 22° W 20:28:39 10° NW
STARLINK-1203 3.7 20:22:59 10° WSW 20:26:55 69° NNW 20:28:44 30° NE
STARLINK-1144 3.5 20:23:44 10° WNW 20:27:53 83° NNE 20:28:50 52° ESE
IRIDIUM 106 4.3 20:23:40 10° N 20:28:56 87° W 20:32:57 17° S
STARLINK-1234 3.9 20:26:31 10° W 20:29:22 39° NNW 20:29:59 34° NNE
Cosmos 1437 3.7 20:26:31 10° N 20:28:32 33° NNE 20:28:32 33° NNE
STARLINK-1230 3.7 20:25:56 10° WSW 20:29:58 71° NNW 20:31:44 32° NE
Cosmos 1626 4.3 20:27:14 10° NNW 20:30:22 26° W 20:33:29 10° SSW
Cosmos 1953 2.1 20:29:29 31° S 20:31:17 81° E 20:35:16 10° NNE
Meteor 2-10 4.1 20:28:33 22° S 20:31:58 61° E 20:37:24 10° NNE
NOSS 3-3 (A) 4.2 20:27:00 10° S 20:32:27 42° ESE 20:38:30 10° NE
NOSS 3-3 (C) 4.2 20:27:08 10° S 20:32:33 41° ESE 20:38:36 10° NE
STARLINK-1103 3.5 20:28:42 10° WNW 20:32:52 88° NNE 20:33:37 59° ESE
SPOT 1/Viking Rocket 4.2 20:32:06 33° E 20:32:59 36° ENE 20:37:42 10° N
Cosmos 2084 Rocket 3.4 20:29:47 10° NW 20:34:17 86° NE 20:35:19 53° SE
Spot 2 Rocket 3.7 20:33:06 41° ESE 20:34:28 53° ENE 20:39:28 10° N
STARLINK-1243 3.8 20:30:39 10° WSW 20:34:40 68° NNW 20:36:16 34° NE
SL-16 R/B 2.7 20:29:15 10° SW 20:34:50 61° WNW 20:40:28 10° NNE
Cosmos 1602 Rocket 4.4 20:33:25 10° NNW 20:37:45 49° W 20:41:06 16° SSW
STARLINK-1101 3.5 20:33:42 10° WNW 20:37:52 88° SSW 20:38:25 66° ESE
STARLINK-1236 3.8 20:35:20 10° WSW 20:39:22 65° NNW 20:40:45 37° NE
IGS 5A 4.2 20:42:14 37° NE 20:42:14 37° NE 20:45:44 10° N
Aureole 3 3.9 20:38:26 13° SSW 20:41:54 68° WNW 20:47:01 10° N
STARLINK-1102 3.4 20:38:41 10° WNW 20:42:50 83° SSW 20:43:11 73° SE
Aureole 2 Rocket 2.4 20:39:23 10° NNW 20:42:44 80° NW 20:42:44 80° NW
DMSP B5D2-2 4.2 20:40:55 10° N 20:46:07 73° WNW 20:51:19 10° SSW
H-2A R/B 4.2 20:42:20 10° SW 20:46:35 24° W 20:50:47 10° NW
STARLINK-1111 3.5 20:43:39 10° WNW 20:47:48 78° SSW 20:47:58 76° S
STARLINK-1269 4.0 20:44:48 10° W 20:48:48 59° NNW 20:49:49 43° NE
Terra 3.3 20:49:37 23° NE 20:49:37 23° NE 20:52:56 10° N
STARLINK-1073 3.6 20:48:39 10° WNW 20:52:44 73° SW 20:52:44 73° SW
Cosmos 2341 Rocket 4.4 20:46:58 10° N 20:52:59 42° ENE 20:53:50 40° E
STARLINK-1200 4.1 20:49:31 10° W 20:53:32 57° NNW 20:54:21 46° NNE
Cosmos 1703 3.4 20:49:42 10° N 20:53:09 61° NNE 20:53:09 61° NNE
Cosmos 1726 Rocket 4.1 20:55:09 46° NE 20:55:09 46° NE 20:58:33 10° NNE
ATLAS 2AS CENTAUR R/B 3.3 20:47:30 10° NW 20:55:03 52° NE 20:57:41 37° E
Cosmos 1603 3.6 20:53:25 28° S 20:56:25 65° ESE 21:02:00 10° NNE
Meteor 1-16 Rocket 4.0 20:54:16 35° S 20:56:36 83° E 21:02:06 10° NNE
Cosmos 1825 Rocket 3.6 20:52:46 10° NNW 20:57:13 77° W 20:57:49 64° SSW
STARLINK-1121 3.7 20:53:38 10° WNW 20:57:32 66° SW 20:57:32 66° SW
STARLINK-1192 4.1 20:54:13 10° W 20:58:12 55° NNW 20:58:49 48° NNE
USA 234 3.3 20:52:59 10° NE 20:59:31 77° NNW 21:06:03 10° WSW
STARLINK-1201 4.5 20:57:23 10° W 21:00:05 36° NNW 21:00:05 36° NNW
Cosmos 2327 Rocket 4.4 20:54:46 10° N 21:01:05 87° E 21:03:23 43° S
STARLINK-1106 3.9 20:58:36 10° WNW 21:02:18 59° WSW 21:02:18 59° WSW
MetOp-B 4.1 21:01:14 48° S 21:02:45 81° WSW 21:08:10 10° NNW
STARLINK-1244 4.2 20:59:02 10° W 21:03:01 53° NNW 21:03:26 50° N
Cosmos 1758 Rocket 4.2 21:02:12 10° NNW 21:06:27 52° W 21:07:20 44° SW
STARLINK-1112 4.2 21:03:37 10° WNW 21:07:06 53° WSW 21:07:06 53° WSW
STARLINK-1138 4.2 21:03:46 10° W 21:07:44 51° NNW 21:07:58 50° N
CZ-2C R/B 3.1 21:03:15 10° N 21:08:20 57° WNW 21:13:23 10° SSW
Cosmos 1992 Rocket 4.5 21:04:16 10° NNW 21:09:21 54° WSW 21:10:43 42° SSW
COSMOS 2455 3.9 21:04:38 10° NNW 21:10:02 32° NE 21:11:09 30° ENE
Meteor 1-11 4.1 21:05:25 10° N 21:11:16 81° ENE 21:12:06 66° SSE
STARLINK-1143 4.3 21:08:35 10° W 21:12:33 50° NNW 21:12:34 50° NNW
STARLINK-1128 4.4 21:08:37 10° WNW 21:11:54 46° WSW 21:11:54 46° WSW
Cosmos 1953 Rocket 3.6 21:08:24 10° NNW 21:12:43 77° WNW 21:12:43 77° WNW
Cosmos 2184 Rocket 4.5 21:07:24 10° NNW 21:13:37 58° W 21:17:03 27° SSW
Cosmos 1295 Rocket 4.4 21:09:24 10° N 21:15:42 79° E 21:16:48 62° SSE
SL-8 R/B 3.8 21:11:44 10° W 21:16:00 66° WSW 21:16:00 66° WSW
Cosmos 2251 Rocket 3.9 21:12:07 10° SW 21:17:26 64° WNW 21:22:48 10° NNE
Meteor 2-17 Rocket 4.4 21:13:20 10° NNW 21:19:30 81° W 21:20:59 54° S
Cosmos 1606 Rocket 3.9 21:20:19 63° WNW 21:20:19 63° WNW 21:24:46 10° N
Cosmos 2218 Rocket 4.5 21:15:51 10° N 21:21:25 42° ENE 21:21:25 42° ENE
Cosmos 1656 Rocket 3.5 21:16:37 10° NNW 21:22:21 85° ENE 21:22:37 81° ESE
ISS -1.4 21:19:45 10° WNW 21:21:09 22° WNW 21:21:09 22° WNW
USA 245 4.3 21:27:48 58° SW 21:28:17 61° W 21:33:59 10° NNW
ERS-1 Rocket 3.0 21:28:47 71° NNE 21:28:47 71° NNE 21:33:21 10° NNW
Resurs 01 Rocket 3.5 21:30:38 20° WSW 21:32:04 24° W 21:35:39 10° NW
Cosmos 2181 Rocket 4.4 21:33:10 47° ENE 21:33:10 47° ENE 21:38:12 10° NNE
SPOT 5 3.5 21:35:18 44° N 21:35:18 44° N 21:38:21 10° N
Cosmos 2154 Rocket 4.3 21:28:18 10° NNW 21:34:33 62° W 21:36:21 45° SSW
Cosmos 2369 Rocket 3.2 21:33:24 10° NW 21:38:37 38° WSW 21:39:39 35° SW
Cosmos 1726 4.3 21:40:55 23° WNW 21:41:13 23° WNW 21:44:17 10° NNW
Cosmos 2228 4.4 21:47:49 35° WNW 21:47:49 35° WNW 21:51:39 10° N
Cosmos 962 Rocket 4.5 21:44:24 10° NNW 21:50:37 73° W 21:50:55 71° WSW
SL-8 Rocket 3.9 21:50:36 10° N 21:56:35 81° NNE 21:56:35 81° NNE
CZ-4C R/B 4.5 21:56:39 10° NW 22:01:47 24° NNE 22:06:33 13° ENE
Cosmos 1943 3.8 22:01:06 47° W 22:02:15 55° WNW 22:07:52 10° NNE
Cosmos 1943 Rocket 4.2 21:59:27 10° WNW 22:03:09 18° W 22:04:24 17° WSW
Cosmos 2366 rocket 4.1 21:57:58 10° N 22:03:18 67° NNE 22:03:18 67° NNE
Mayak 1.5 22:06:39 10° NNE 22:06:55 12° NNE 22:06:55 12° NNE
NOSS 3-4 (A) 3.8 22:06:32 10° NW 22:13:24 78° WSW 22:13:24 78° WSW
NOSS 3-4 (C) 3.8 22:06:38 10° NW 22:13:29 79° WSW 22:13:29 79° WSW
Terra 3.4 22:28:29 32° NW 22:28:29 32° NW 22:31:16 10° NNW
Cosmos 1697 Rocket 4.4 22:22:04 10° N 22:26:03 24° NE 22:26:03 24° NE
USA 234 4.2 22:36:00 10° ENE 22:42:06 44° N 22:48:13 10° W
ATLAS 2AS CENTAUR R/B 3.4 22:38:52 10° NW 22:45:08 47° W 22:45:08 47° W
Cosmos 1980 Rocket 4.1 22:47:12 10° N 22:50:54 21° NNE 22:50:54 21° NNE
COSMOS 2455 3.9 22:50:25 10° NW 22:54:18 40° NW 22:54:18 40° NW
Mayak 1.9 23:43:05 10° NNW 23:43:29 12° NNW 23:43:29 12° NNW
CZ-4C R/B 3.5 23:45:16 10° NW 23:51:42 49° NNE 23:51:42 49° NNE
